Regional Weather Roundup
Issued by NWS Charleston, SC

Current Version | Previous Version | Text Only | Print | Product List | Glossary Off
Versions: 1 2 3 4 5 6 7 8 9 10 11 12 13 14 15 16 17 18 19 20 21 22 23 24 25 26 27 28 29 30 31 32 33 34 35 36 37 38 39 40 41 42 43 44 45 46 47 48 49 50

000
ASUS42 KCHS 010410
RWRCHS
REGIONAL WEATHER ROUNDUP
NATIONAL WEATHER SERVICE CHARLESTON SC
1200 AM EDT FRI AUG 01 2014

NOTE: "FAIR" INDICATES FEW OR NO CLOUDS BELOW 12,000 FEET WITH NO
SIGNIFICANT WEATHER AND/OR OBSTRUCTIONS TO VISIBILITY.

NOT ALL STATIONS ARE QUALITY CONTROLLED BY THE NATIONAL
WEATHER SERVICE. USE DATA WITH CAUTION...ESPECIALLY
DEWPOINT OBSERVATIONS.

SCZ027-030-031-034>040-042>050-010500-
...SOUTH CAROLINA...

CITY           SKY/WX    TMP DP  RH WIND       PRES   REMARKS
N CHARLESTON   MOCLDY    75  72  90 NE3       30.04S
WATERFRONT PRK   N/A     79 N/A N/A NW3         N/A
FORT JOHNSON   NOT AVBL
MOUNT PLEASANT LGT RAIN  73  73 100 NE3       30.04S
JOHNS ISLAND   MOCLDY    75  72  88 CALM      30.04S
PINOPOLIS        N/A     75  72  88 E13       29.98R
MONCKS CORNER  NOT AVBL
SUMMERVILLE    FAIR      72  72 100 CALM      30.06R
BEAUFORT MCAS  MOCLDY    75  73  93 E6        30.03F
BEAUFORT ARPT  FAIR      77  77 100 NE6       30.02F
HILTON HEAD IS MOCLDY    77  73  88 CALM      30.04S
GEORGETOWN     NOT AVBL
WALTERBORO     MOCLDY    73 N/A N/A CALM      30.05S
ORANGEBURG     CLOUDY    73  68  84 NE6       30.06F
BARNWELL       CLOUDY    75  72  88 NE7       30.06S
AIKEN          CLOUDY    70  70 100 NE6       30.11S
MANNING        FAIR      73 N/A N/A NE3       30.06S
KINGSTREE      NOT AVBL
COLUMBIA       CLOUDY    74  65  73 E3        30.07F
SUMTER         CLOUDY    70  70  99 NE7       30.05
FLORENCE       LGT RAIN  74  71  91 E6        30.09S
MYRTLE BEACH   CLOUDY    81  73  78 E12G20    30.07R
N MYRTLE BEACH CLOUDY    82  73  74 E14G21    30.08R

$$

GAZ063-065-086>088-099>101-113>116-118-119-134-136>141-150-010500-
...GEORGIA...

CITY           SKY/WX    TMP DP  RH WIND       PRES   REMARKS
SAVANNAH ARPT  MOCLDY    78  75  90 E5        30.02S
HUNTER AAF     NOT AVBL
FORT STEWART   NOT AVBL
STATESBORO     NOT AVBL
SYLVANIA       CLOUDY    75  74  98 E5        30.05R
CLAXTON        FAIR      77  77 100 CALM      30.02S
THOMSON        CLOUDY    72  72 100 NE6       30.12S
AUGUSTA-BUSH   CLOUDY    73  69  87 NE3       30.05F
AUGUSTA-DANIEL CLOUDY    73  69  87 NE9       30.07S
SWAINSBORO     CLOUDY    77  77 100 NE7       30.04S
VIDALIA          N/A     75  73  94 NE3       30.03R
ALMA           CLEAR     75  68  78 NE5       30.00S
WAYCROSS       CLEAR     83  74  74 S6        30.00S
JESUP          FAIR      79  73  83 CALM      30.01S
BRUNSWICK      PTCLDY    84  70  61 SE6       30.01R
SAINT SIMONS   PTCLDY    83  73  72 SE9       30.00S

$$

SCZ027-028-034-036>038-045-046-048>050-GAZ119-141-010500-
...LAKE AND SUPPLEMENTAL COASTAL OBSERVATIONS...

STATION/POSITION TIME  TEMP    WIND        PRES    WAVE   SWELL
                       AIR SEA DIR/SP/G            HT/PER HT/PER/DIR
                 (UTC) (F)     (DEG/KT/KT) (MB)    (FT/S) (FT/S/D)
UPR LAKE MARION  NOT AVBL
WINYAH BAY       0300   72      40/ 14     1017.0S
LAKE MURRAY      0300   71      30/  1/  4 1018.3S
ACE BASIN NERRS  0300   74      20/  2     1017.0S
FORT PULASKI     0400   82     120/  3/  5 1016.7F
SAPELO ISLAND    0300   83     130/  5     1016.0S

$$

ANZ835-935-AMZ111-154-330-350-352-354-374-450-454-472-010500-
...C-MAN AND BUOY OBSERVATIONS...

STATION/POSITION TIME  TEMP    WIND        PRES    WAVE   SWELL
                       AIR SEA DIR/SP/G            HT/PER HT/PER/DIR
                 (UTC) (F)     (DEG/KT/KT) (MB)    (FT/S) (FT/S/D)
FOLLY BEACH CMAN 0300   82     130/ 12/ 14 1017.4R
BUOY 41004       0400   82 83  130/ 12/ 16 1016.3F   4/ 5   2/ 7
BUOY 41008       0400   84 85  140/ 10/ 12 1016.0S   3/ 5   2/ 60/ 5
5E ST. MARYS GA  0300      86                N/A     3/ 7
FRYING PAN BUOY  NOT AVBL
BUOY 41025       0400          VRB 16/ 19  1020.5F   4/ 6   2/120/ 8
CAPE LOOKOUT NC  0300   80      90/ 16/ 18 1020.0S
BUOY 41002       0253   81 81  170/  8/  8 1020.2    4/ 7   3/110/ 7
BUOY 41010       0400   84 84  140/ 14/ 16 1017.1F   3/ 8   2/ 80/ 8
BUOY 41012       NOT AVBL
ST AUGUSTINE FL  0400   83     160/ 12/ 13 1016.0F
CAPERS NEARSHORE 0300   82     140/ 10/ 12   N/A
FRIPP NEARSHORE  NOT AVBL


$$



USA.gov is the U.S. government's official web portal to all federal, state and local government web resources and services.